sat.trackr.live / text

‹ back to catalog

MONITOR-2 (RS39S)

NORAD 57184 · 2023-091U

PAYLOAD ACTIVE UNKNOWN

§ Identity

Operator
Country
CIS
Launch date
2023-06-27
Launch site
VOSTO
Launch vehicle
Mass (kg)
RCS (m²)

Purposes: comms

External: N2YO · Heavens-Above · Gunter

§ Orbital elements

Epoch: 2026-09-19T22:57:19.598976Z

Period
94.76 min
Inclination
97.4971°
Eccentricity
0.0012065
Mean motion
15.19633371 rev/d
Perigee alt
498.6 km
Apogee alt
515.3 km
Semi-major
6,885.1 km
B*
1.4267e-4
RAAN
320.6223°
Arg perigee
137.0837°
Mean anomaly
223.1341°
Rev number
17,834

§ Raw data

MONITOR-2 (RS39S)1 57184U 23091U   26262.95647684  .00002976  00000+0  14267-3 0  99932 57184  97.4971 320.6223 0012065 137.0837 223.1341 15.19633371178343

JSON: /api/v1/satellites/57184 · /tle

For live sub-satellite position, see the globe view (requires WebGL).

§ Visibility from observer

Set your observer location to see the next 7 days of passes ≥ 10°. The values pass through the URL so the page stays shareable.

No JS? Fill the form by hand. The geolocation button needs JavaScript.

§ Radio — SatNOGS DB

ModeDescriptionDownlinkUplink
AFSK Mode U - AFSK 1k2 435.650 MHz
DOKA Mode U - DOKA 9k6 435.915 MHz
DOKA Mode U - DOKA 9k6 435.000 MHz
FSK Mode U - FSK9k6 435.860 MHz
AFSK Mode U AFSK 1k2 435.815 MHz

5 transmitters · refreshed weekly from db.satnogs.org